Tracking 27122 objects as of 25-Mar-2023
HD Live streaming from Space Station
objects crossing your sky now

SL-8 DEB

Track SL-8 DEB now!
10-day predictions


NORAD ID: 43117
Int'l Code: 2018-004G
Perigee: 760.9 km
Apogee: 788.9 km
Inclination: 74.1 °
Period: 100.2 minutes
Semi major axis: 7145 km
RCS: Unknown
Launch date: January 12, 2018
Source: Commonwealth of Independent States (former USSR) (CIS)
Launch site: SRIHARIKOTA (SRI)

Note: This is SATELLITE DEBRIS
Your satellite tracking list
Your tracking list is empty




NASA's NSSDC Master Catalog

Two Line Element Set (TLE):
1 43117U 88053E   23078.94243145  .00000359  00000-0  12906-3 0  9990
2 43117  74.0527 323.6239 0019611  49.6377 310.6485 14.37193817273008
Source of the keplerian elements: AFSPC